TimeCST,TemperatureF,Dew PointF,Humidity,Sea Level PressureIn,VisibilityMPH,Wind Direction,Wind SpeedMPH,Gust SpeedMPH,PrecipitationIn,Events,Conditions,WindDirDegrees,DateUTC
12:55 AM,37.8,34.0,86,30.09,10.0,Calm,Calm,-,N/A,,Clear,0,2011-12-01 06:55:00
1:55 AM,36.9,33.1,86,30.08,10.0,Calm,Calm,-,N/A,,Clear,0,2011-12-01 07:55:00
2:55 AM,36.3,33.3,89,30.07,10.0,North,4.6,-,N/A,,Clear,350,2011-12-01 08:55:00
3:55 AM,37.4,33.6,86,30.06,10.0,NNW,6.9,-,N/A,,Clear,330,2011-12-01 09:55:00
4:55 AM,37.8,34.9,89,30.06,10.0,NNW,4.6,-,N/A,,Clear,330,2011-12-01 10:55:00
5:52 AM,39.2,37.4,93,30.08,10.0,NNW,5.8,-,N/A,,Mostly Cloudy,340,2011-12-01 11:52:00
5:55 AM,39.7,37.4,91,30.08,10.0,North,4.6,-,N/A,,Mostly Cloudy,350,2011-12-01 11:55:00
5:58 AM,39.2,37.4,93,30.08,10.0,NNW,4.6,-,N/A,,Scattered Clouds,340,2011-12-01 11:58:00
6:32 AM,39.2,37.4,93,30.09,10.0,NNW,5.8,-,N/A,,Mostly Cloudy,340,2011-12-01 12:32:00
6:55 AM,42.4,40.1,91,30.09,10.0,NNW,3.5,-,N/A,,Mostly Cloudy,340,2011-12-01 12:55:00
7:19 AM,42.8,41.0,93,30.10,10.0,NNW,4.6,-,N/A,,Overcast,340,2011-12-01 13:19:00
7:28 AM,42.8,41.0,93,30.10,10.0,NNW,4.6,-,N/A,,Mostly Cloudy,340,2011-12-01 13:28:00
7:40 AM,44.6,41.0,87,30.11,10.0,NNW,4.6,-,N/A,,Mostly Cloudy,340,2011-12-01 13:40:00
7:44 AM,44.6,41.0,87,30.11,10.0,NNW,4.6,-,N/A,,Mostly Cloudy,340,2011-12-01 13:44:00
7:55 AM,45.1,42.3,90,30.11,10.0,North,3.5,-,N/A,,Overcast,350,2011-12-01 13:55:00
8:07 AM,46.4,42.8,87,30.11,10.0,North,3.5,-,N/A,,Overcast,360,2011-12-01 14:07:00
8:40 AM,50.0,46.4,87,30.11,10.0,NNW,3.5,-,N/A,,Overcast,340,2011-12-01 14:40:00
8:55 AM,52.5,47.3,82,30.12,10.0,ENE,3.5,-,N/A,,Scattered Clouds,70,2011-12-01 14:55:00
8:59 AM,53.6,48.2,82,30.12,10.0,ENE,4.6,-,N/A,,Mostly Cloudy,60,2011-12-01 14:59:00
9:11 AM,53.6,50.0,88,30.11,10.0,ENE,4.6,-,N/A,,Scattered Clouds,70,2011-12-01 15:11:00
9:16 AM,53.6,50.0,88,30.12,10.0,Variable,3.5,-,N/A,,Mostly Cloudy,0,2011-12-01 15:16:00
9:19 AM,55.4,50.0,82,30.12,10.0,ENE,4.6,-,N/A,,Mostly Cloudy,70,2011-12-01 15:19:00
9:29 AM,55.4,50.0,82,30.12,10.0,East,5.8,-,N/A,,Mostly Cloudy,90,2011-12-01 15:29:00
9:53 AM,57.2,51.8,82,30.13,10.0,ESE,5.8,-,N/A,,Mostly Cloudy,110,2011-12-01 15:53:00
9:54 AM,57.2,51.8,82,30.13,10.0,East,5.8,-,N/A,,Mostly Cloudy,100,2011-12-01 15:54:00
10:14 AM,60.8,51.8,72,30.13,10.0,ESE,5.8,-,N/A,,Scattered Clouds,120,2011-12-01 16:14:00
10:55 AM,65.3,54.9,69,30.11,10.0,SE,8.1,-,N/A,,Scattered Clouds,140,2011-12-01 16:55:00
11:50 AM,69.8,57.2,64,30.09,10.0,Variable,5.8,-,N/A,,Mostly Cloudy,0,2011-12-01 17:50:00
11:55 AM,70.9,56.3,60,30.09,10.0,South,15.0,-,N/A,,Mostly Cloudy,170,2011-12-01 17:55:00
11:58 AM,71.6,55.4,57,30.08,10.0,South,19.6,26.5,N/A,,Mostly Cloudy,190,2011-12-01 17:58:00
12:18 PM,73.4,55.4,53,30.07,10.0,South,15.0,21.9,N/A,,Scattered Clouds,180,2011-12-01 18:18:00
12:55 PM,75.6,55.4,49,30.05,10.0,South,17.3,25.3,N/A,,Scattered Clouds,180,2011-12-01 18:55:00
1:55 PM,76.1,53.1,45,30.02,10.0,SSE,16.1,-,N/A,,Partly Cloudy,150,2011-12-01 19:55:00
2:55 PM,75.6,53.2,46,30.01,10.0,SSE,12.7,-,N/A,,Partly Cloudy,160,2011-12-01 20:55:00
3:55 PM,78.3,47.3,34,30.02,10.0,SE,15.0,-,N/A,,Partly Cloudy,140,2011-12-01 21:55:00
4:55 PM,75.9,49.6,40,30.04,10.0,SE,16.1,-,N/A,,Scattered Clouds,130,2011-12-01 22:55:00
5:55 PM,70.7,49.3,47,30.06,10.0,ESE,9.2,-,N/A,,Partly Cloudy,120,2011-12-01 23:55:00
6:55 PM,67.3,51.3,56,30.10,10.0,SE,8.1,-,N/A,,Clear,130,2011-12-02 00:55:00
7:55 PM,61.7,54.9,78,30.14,10.0,East,4.6,-,N/A,,Partly Cloudy,80,2011-12-02 01:55:00
8:47 PM,62.6,57.2,82,30.15,10.0,East,6.9,-,N/A,,Mostly Cloudy,90,2011-12-02 02:47:00
8:55 PM,63.7,57.7,81,30.15,10.0,East,6.9,-,N/A,,Mostly Cloudy,100,2011-12-02 02:55:00
9:39 PM,64.4,59.0,83,30.17,10.0,East,8.1,-,N/A,,Mostly Cloudy,100,2011-12-02 03:39:00
9:55 PM,62.6,58.8,87,30.17,10.0,ESE,6.9,-,N/A,,Partly Cloudy,110,2011-12-02 03:55:00
10:55 PM,61.2,58.8,92,30.17,10.0,East,5.8,-,N/A,,Partly Cloudy,90,2011-12-02 04:55:00
11:45 PM,60.8,59.0,94,30.17,10.0,ENE,4.6,-,N/A,,Mostly Cloudy,70,2011-12-02 05:45:00
11:49 PM,60.8,59.0,94,30.17,10.0,ENE,4.6,-,N/A,,Scattered Clouds,70,2011-12-02 05:49:00
11:55 PM,59.7,59.0,97,30.17,10.0,ENE,5.8,-,N/A,,Partly Cloudy,70,2011-12-02 05:55:00